STARLINK-31689, 59567

Orbit data source: Space-Track

STARLINK-31689, 59567 is a payload satellite owned by SpaceX/Seattle (US) in LEO that was launched on Tue, 23 Apr 2024 UTC via an FALCON 9 launch vehicle from the Air Force Eastern Test Range (AFETR). Payload-class satellites include a variety of spacecraft equipped with specific instruments for various scientific and technological missions. These include communications satellites like Starlink; space stations such as the ISS; scientific satellites like the Hubble; Earth observation satellites from companies like Planet Labs, Umbra, and HawkEye 360; GPS; miniature CubeSats for education and research; and military/defense satellites.

Loading next visibility...
Identifier
59567, 2024-076D
Orbit
LEO
Last TLE update
17 hours ago
Origin
Manufacturer
SpaceX/Seattle
Mission
Operational spacecraft
Bus & Motor
STARLINK V2M, Unknown motor
Mass
730 kg wet, ~700 kg dry
Launch date (UTC)
2024-04-23 (1 year ago)
Launch vehicle
FALCON 9
Launch site
Air Force Eastern Test Range (AFETR)
Object type
Payload
Rocket body
Debris
Shape & HBR
Unknown
Radar Cross Section
Large (>1 m²)

Expand to show TLE details & history

TLE from 17 hours ago
0 STARLINK-31689
1 59567U 24076D   25188.63806488 -.00000904  00000-0 -23351-4 0  9991
2 59567  43.0006 309.6022 0000766 253.1191 106.9577 15.27576099 69067
Epoch: 2025-07-07T15:18Z
TLE epoch observation values (Epoch: 2025-07-07T15:18:48.805Z)
Latitude
-0°
Longitude
154.05431°
Altitude
482.99 km
Speed
7.626 km/s
True Right ascension
20h 38m 24s
True Declination
0° 00' 00"
Sunlit
Object was in full shadow at epoch
Visualization orbit readout
Latitude
6.03353°
Longitude
156.45348°
Altitude
482.447 km
Speed
7.626 km/s
Apparent Right ascension
21h 01m 46s
Apparent Declination
-60° 05' 49"
Sunlit
Object is in full shadow
Visualization observer readout
Local Sidereal Time
20:42:35
Azimuth
177.573° S
Elevation
-10.091°
Doppler factor
1
Orbital elements
Apogee altitude
485.532 km
Perigee altitude
484.48 km
Semi-major axis
6,863.143 km
Eccentricity
0.00008
Inclination
43.0006°
RAAN
309.6022°
Arg. of periapsis
253.1191°
True anomaly
Unknown
Mean anomaly
106.9577°
Eccentric anomaly
Unknown
Mean motion
3.81732 °/min
Orbital period
94.31 mins
BSTAR
-0.000023351
Loading maneuver chart data...
Loading SW <> Apogee altitude chart data...
Loading historical data...
Loading historical data...
Loading historical data...
Loading historical data...
Loading historical data...
Loading historical data...
Loading historical data...

STARLINK-31689 Visibility forecast

Observer location: undefined°, undefined°

Span
Click to sort rows by Start time (UTC) header in descending order
Start Az.
Max El. time (UTC)
Max El. Az.
Max El.
End time (UTC)
End Az.
5 mins2025-07-08 11:57:50.318Z233.5° WSW2025-07-08 11:59:50.318Z161.673° S42.496°2025-07-08 12:02:50.318Z76.476° E
5 mins2025-07-08 13:36:50.318Z284.531° WNW2025-07-08 13:38:50.318Z348.371° N38.962°2025-07-08 13:41:50.318Z69.854° E
6 mins2025-07-08 15:15:50.318Z293.989° NW2025-07-08 15:17:50.318Z341.516° N41.535°2025-07-08 15:21:50.318Z95.492° ESE
5 mins2025-07-08 16:54:50.318Z267.835° W2025-07-08 16:56:50.318Z215.751° SW32.096°2025-07-08 16:59:50.318Z143.504° SSE
|